Volver al catálogo

SL-14 DEB

ActivoPO
NORAD 19226·DEBRIS·🇷🇺 Russia

Lanzado Oct 26, 1978 desde Plesetsk Cosmodrome

Loading…

Próximos Pases (próximas 24 horas)

TLE

ActualizadoSource: Space-Track

Época: Sep 14, 2026, 14:12 UTC

1 19226U 78100V   26257.59234177 -.00000001  00000-0 -12131-3 0  9990
2 19226  82.5296 299.6348 0047547  63.0517  92.1205 12.00849478676892

Sigue SL-14 DEB en tiempo real con AllMySat

Download on the App Store